TimeEDT,TemperatureF,Dew PointF,Humidity,Sea Level PressureIn,VisibilityMPH,Wind Direction,Wind SpeedMPH,Gust SpeedMPH,PrecipitationIn,Events,Conditions,WindDirDegrees,DateUTC
12:53 AM,53.1,48.9,86,30.14,10.0,Calm,Calm,-,N/A,,Overcast,0,2012-10-09 04:53:00
1:34 AM,53.6,48.2,82,30.15,8.0,Calm,Calm,-,N/A,,Overcast,0,2012-10-09 05:34:00
1:53 AM,53.1,48.9,86,30.14,6.0,Variable,3.5,-,N/A,,Overcast,0,2012-10-09 05:53:00
2:53 AM,52.0,48.9,89,30.14,5.0,Calm,Calm,-,N/A,,Overcast,0,2012-10-09 06:53:00
4:53 AM,51.1,48.9,92,30.13,9.0,Variable,3.5,-,N/A,,Overcast,0,2012-10-09 08:53:00
5:40 AM,51.8,48.2,88,30.14,10.0,Variable,4.6,-,N/A,,Overcast,0,2012-10-09 09:40:00
5:53 AM,51.1,48.0,89,30.14,9.0,Calm,Calm,-,N/A,,Overcast,0,2012-10-09 09:53:00
6:01 AM,51.8,48.2,88,30.14,9.0,Calm,Calm,-,N/A,,Overcast,0,2012-10-09 10:01:00
6:53 AM,51.1,48.0,89,30.15,10.0,North,3.5,-,N/A,,Overcast,350,2012-10-09 10:53:00
7:53 AM,51.1,48.0,89,30.18,5.0,Calm,Calm,-,N/A,,Overcast,0,2012-10-09 11:53:00
8:53 AM,52.0,48.0,86,30.18,10.0,Calm,Calm,-,N/A,,Overcast,0,2012-10-09 12:53:00
9:53 AM,52.0,48.9,89,30.19,10.0,North,4.6,-,N/A,,Overcast,360,2012-10-09 13:53:00
10:37 AM,53.6,48.2,82,30.20,10.0,NNW,4.6,-,N/A,,Overcast,340,2012-10-09 14:37:00
10:53 AM,55.0,48.0,77,30.19,10.0,Variable,4.6,-,N/A,,Overcast,0,2012-10-09 14:53:00
11:15 AM,53.6,48.2,82,30.19,10.0,NNW,4.6,-,N/A,,Overcast,330,2012-10-09 15:15:00
11:46 AM,55.4,48.2,77,30.19,10.0,Variable,4.6,-,N/A,,Overcast,0,2012-10-09 15:46:00
11:53 AM,55.0,48.0,77,30.18,10.0,Variable,4.6,-,N/A,,Overcast,0,2012-10-09 15:53:00
12:07 PM,55.4,48.2,77,30.18,10.0,Variable,4.6,-,N/A,,Overcast,0,2012-10-09 16:07:00
12:53 PM,55.9,48.0,75,30.17,10.0,Variable,3.5,-,N/A,,Overcast,0,2012-10-09 16:53:00
1:53 PM,55.9,48.0,75,30.14,10.0,WNW,5.8,-,N/A,,Overcast,300,2012-10-09 17:53:00
2:53 PM,57.0,48.9,74,30.13,10.0,North,3.5,-,N/A,,Overcast,360,2012-10-09 18:53:00
3:53 PM,57.0,48.9,74,30.13,10.0,Calm,Calm,-,N/A,,Overcast,0,2012-10-09 19:53:00
4:53 PM,57.0,48.0,72,30.12,10.0,Calm,Calm,-,N/A,,Overcast,0,2012-10-09 20:53:00
5:53 PM,57.0,48.9,74,30.12,10.0,NW,4.6,-,N/A,,Overcast,310,2012-10-09 21:53:00
6:53 PM,57.0,48.9,74,30.12,10.0,NNW,3.5,-,N/A,,Overcast,330,2012-10-09 22:53:00
7:53 PM,57.0,48.9,74,30.12,10.0,Calm,Calm,-,N/A,,Overcast,0,2012-10-09 23:53:00
8:53 PM,54.0,50.0,86,30.14,10.0,Calm,Calm,-,N/A,,Scattered Clouds,0,2012-10-10 00:53:00
9:53 PM,51.1,48.9,92,30.14,10.0,Calm,Calm,-,N/A,,Clear,0,2012-10-10 01:53:00
10:53 PM,50.0,48.0,93,30.14,10.0,Calm,Calm,-,N/A,,Clear,0,2012-10-10 02:53:00
11:53 PM,48.9,46.9,93,30.14,9.0,Calm,Calm,-,N/A,,Clear,0,2012-10-10 03:53:00